Location: DARK SKY Beskydy - Park tmavé oblohy, www.darkskybeskydy.cz
(49.4926°N, 18.5016°E)
Time: 18:52:17
(UTC+02:00)

Transit 2A Rocket - Visible Passes

Search period start: 13 May 2025 00:00
Search period end: 23 May 2025 00:00
Orbit: 591 x 895 km, 66.7° (Epoch: 12 May)

Date Brightness Start Highest point End Pass type
(mag) Time Alt. Az. Time Alt. Az. Time Alt. Az.
13 May 4.7 22:01:38 10° NW 22:06:08 76° WSW 22:09:18 21° SSE visible
13 May 7.1 23:46:25 10° W 23:47:48 11° WSW 23:49:01 10° WSW visible
14 May 4.9 21:16:32 10° NNW 21:20:59 64° NE 21:25:28 12° SE visible
14 May 6.6 22:59:37 10° WNW 23:02:59 20° WSW 23:05:12 15° SW visible
15 May 5.8 22:13:55 10° NW 22:18:05 35° WSW 22:21:26 16° S visible
16 May 5.0 21:28:35 10° NW 21:33:03 62° WSW 21:37:42 11° SSE visible
17 May 6.9 22:26:51 10° WNW 22:29:49 17° WSW 22:32:56 10° SSW visible
18 May 6.2 21:40:57 10° NW 21:44:56 29° WSW 21:49:10 10° S visible
20 May 7.2 21:54:13 10° WNW 21:56:38 14° WSW 21:59:07 10° SW visible
21 May 6.7 21:08:01 10° WNW 21:11:46 25° WSW 21:15:45 10° SSW visible
